Location: Gudip?du
(17.0263°N, 80.8301°E)
Time: 15:19:43
(UTC+00:00)

YAOGAN 1 - Pass Details

Date: 03 August 2024
Orbit: 610 x 612 km, 97.8° (Epoch: 11 September)

Event Time Altitude Azimuth Distance (km) Brightness Sun altitude
Rises 13:43:44 0° 174° (S) 2,866 5.7 -8.8°
Reaches altitude 10° 13:45:55 10° 176° (S) 1,963 4.9 -9.3°
Maximum altitude 13:50:09 66° 259° (W) 667 2.9 -10.2°
Drops below altitude 10° 13:54:24 10° 342° (NNW) 1,968 5.7 -11.2°
Sets 13:56:36 0° 345° (NNW) 2,874 6.6 -11.6°
